Location: ????????
(55.3155°N, 39.2900°E)
Time: 10:18:52
(UTC+00:00)

NOSS 3-1 (C) - Pass Details

Date: 14 April 2024
Orbit: 652 x 1553 km, 63.4° (Epoch: 15 May)

Event Time Altitude Azimuth Distance (km) Brightness Sun altitude
Rises 23:59:49 0° 305° (NW) 3,587 6.4 -17.4°
Reaches altitude 10° 00:02:09 10° 308° (NW) 2,756 5.8 -17.2°
Maximum altitude 00:08:45 68° 31° (NNE) 1,243 4.2 -16.6°
Drops below altitude 10° 00:16:59 10° 115° (ESE) 3,412 6.6 -15.7°
Sets 00:20:10 0° 118° (ESE) 4,493 7.2 -15.4°
